Beijing, China

8:42 PM CST on July 22, 2018 (GMT +0800)
Beijing Capital

Weather History for ZBAA - January, 2018

Change the Weather History Date:

Saturday, January 13, 2018

  Actual Average Record
Temperature  
Mean Temperature 25 °F -  
Max Temperature 38 °F 37 °F 44 °F (2003)
Min Temperature 12 °F 17 °F 5 °F (2001)
Degree Days  
Heating Degree Days 40    
Moisture  
Dew Point 7 °F    
Average Humidity 48    
Maximum Humidity 69    
Minimum Humidity 14    
Precipitation  
Precipitation 0.00 in 0.01 in - ()
Sea Level Pressure  
Sea Level Pressure 30.31 in    
Wind  
Wind Speed 3 mph ()    
Max Wind Speed 9 mph    
Max Gust Speed -    
Visibility 3.0 miles    
Events      
Averages and records for this station are not official NWS values.
T = Trace of Precipitation, MM = Missing Value Source: Averaged Metar Reports

Daily Weather History Graph

Daily Weather History Graph

Search for Another Location

Airport or City:

Astronomy

Jan. 13, 2018 Rise Set
Actual Time 7:34 AM CST 5:09 PM CST
Civil Twilight 7:04 AM CST 5:39 PM CST
Nautical Twilight 6:31 AM CST 6:13 PM CST
Astronomical Twilight 5:58 AM CST 6:46 PM CST
Moon 4:05 AM CST (1/13) 2:23 PM CST (1/13)
Length of Visible Light 10h 35m
Length of Day
9h 35m
Waning Crescent, 13% of the Moon is Illuminated
Jan 13
Waning Crescent
Jan 17
New
Jan 25
First Quarter
Jan 31
Full
Feb 7
Last Quarter

Hourly Weather History & Observations

Time (CST) Temp. Windchill Dew Point Humidity Pressure Visibility Wind Dir Wind Speed Gust Speed Precip Events Conditions
12:00 AM 14.0 °F - 3.2 °F 62% 30.36 in - NNE 2.2 mph - N/A   Clear
12:30 AM 15.8 °F - 3.2 °F 58% 30.36 in - North 2.2 mph - N/A   Clear
1:00 AM 15.8 °F 8.7 °F 3.2 °F 58% 30.36 in - North 4.5 mph - N/A   Clear
1:30 AM 12.2 °F - 3.2 °F 67% 30.36 in - NNE 2.2 mph - N/A   Clear
2:00 AM 20 °F - 6 °F 40% 30.37 in 2 mi NNE 4.5 mph - -   Haze
2:00 AM 14.0 °F - 3.2 °F 62% 30.36 in - Variable 2.2 mph - N/A   Clear
2:30 AM 14.0 °F - 3.2 °F 62% 30.36 in - Calm Calm - N/A   Clear
3:00 AM 12.2 °F - 1.4 °F 62% 30.36 in - Variable 2.2 mph - N/A   Clear
3:30 AM 12.2 °F 1.9 °F 3.2 °F 67% 30.36 in - North 6.7 mph - N/A   Clear
4:00 AM 14.0 °F 6.6 °F 5.0 °F 67% 30.36 in - North 4.5 mph - N/A   Clear
4:30 AM 14.0 °F - 3.2 °F 62% 30.36 in - North 2.2 mph - N/A   Clear
5:00 AM 18 °F - 3 °F 37% 30.35 in 3 mi Calm Calm - -   Haze
5:00 AM 12.2 °F 1.9 °F 3.2 °F 67% 30.33 in - North 6.7 mph - N/A   Clear
5:30 AM 14.0 °F 4.1 °F 3.2 °F 62% 30.33 in - NNW 6.7 mph - N/A   Clear
6:00 AM 14.0 °F 6.6 °F 3.2 °F 62% 30.33 in - North 4.5 mph - N/A   Clear
6:30 AM 14.0 °F 4.1 °F 3.2 °F 62% 30.33 in - North 6.7 mph - N/A   Clear
7:00 AM 19.4 °F 8.8 °F 5.0 °F 54% 30.33 in - NNW 8.9 mph - N/A   Clear
7:30 AM 15.8 °F 8.7 °F 3.2 °F 58% 30.36 in - North 4.5 mph - N/A   Clear
8:00 AM 16 °F - 4 °F 44% 30.38 in - Calm Calm - -   Haze
8:00 AM 15.8 °F 6.2 °F 3.2 °F 58% 30.36 in - North 6.7 mph - N/A   Clear
8:30 AM 17.6 °F 10.8 °F 5.0 °F 58% 30.36 in - North 4.5 mph - N/A   Clear
9:00 AM 21.2 °F 15.0 °F 5.0 °F 50% 30.39 in - NNE 4.5 mph - N/A   Clear
9:30 AM 24.8 °F 19.2 °F 6.8 °F 46% 30.39 in - North 4.5 mph - N/A   Clear
10:00 AM 26.6 °F - 5.0 °F 40% 30.39 in - Variable 2.2 mph - N/A   Clear
10:30 AM 28.4 °F - 5.0 °F 37% 30.39 in - Variable 2.2 mph - N/A   Clear
11:00 AM 33 °F - 4 °F 16% 30.37 in 6 mi ESE 2.2 mph - -  
11:00 AM 30.2 °F 25.5 °F 6.8 °F 37% 30.36 in - ENE 4.5 mph - N/A   Clear
11:30 AM 32.0 °F - 1.4 °F 27% 30.36 in - Variable 2.2 mph - N/A   Clear
12:00 PM 33.8 °F - 3.2 °F 28% 30.33 in - Variable 2.2 mph - N/A   Clear
12:30 PM 33.8 °F 29.7 °F 3.2 °F 28% 30.30 in - ESE 4.5 mph - N/A   Clear
1:00 PM 35.6 °F - 3.2 °F 26% 30.30 in - Variable 2.2 mph - N/A   Clear
1:30 PM 37.4 °F 33.9 °F 3.2 °F 24% 30.27 in - SSE 4.5 mph - N/A   Clear
2:00 PM 38 °F - 6 °F 14% 30.27 in - ESE 4.5 mph - -   Haze
2:00 PM 37.4 °F 33.9 °F 5.0 °F 26% 30.27 in - ESE 4.5 mph - N/A   Clear
2:30 PM 37.4 °F 33.9 °F 5.0 °F 26% 30.27 in - ESE 4.5 mph - N/A   Clear
3:00 PM 37.4 °F 32.2 °F 3.2 °F 24% 30.24 in - Variable 6.7 mph - N/A   Clear
3:30 PM 37.4 °F 32.2 °F 3.2 °F 24% 30.27 in - SE 6.7 mph - N/A   Clear
4:00 PM 35.6 °F 30.0 °F 5.0 °F 28% 30.24 in 4.3 mi SSE 6.7 mph - N/A   Unknown
4:30 PM 33.8 °F 29.7 °F 6.8 °F 32% 30.24 in 3.7 mi SE 4.5 mph - N/A   Unknown
5:00 PM 35 °F - 11 °F 22% 30.25 in 2 mi South 4.5 mph - -   Haze
5:00 PM 33.8 °F 29.7 °F 8.6 °F 35% 30.24 in 2.5 mi ESE 4.5 mph - N/A   Haze
5:30 PM 30.2 °F 25.5 °F 12.2 °F 47% 30.24 in 2.5 mi ESE 4.5 mph - N/A   Haze
6:00 PM 28.4 °F - 12.2 °F 51% 30.24 in 3.1 mi Variable 2.2 mph - N/A   Haze
6:30 PM 24.8 °F - 10.4 °F 54% 30.27 in 3.1 mi East 2.2 mph - N/A   Haze
7:00 PM 24.8 °F - 12.2 °F 59% 30.24 in 3.1 mi East 2.2 mph - N/A   Haze
7:30 PM 23.0 °F - 12.2 °F 63% 30.24 in 3.1 mi East 2.2 mph - N/A   Haze
8:00 PM 27 °F - 13 °F 41% 30.26 in 2 mi Calm Calm - -   Haze
8:00 PM 26.6 °F 21.3 °F 14.0 °F 59% 30.24 in 3.1 mi ESE 4.5 mph - N/A   Haze
8:30 PM 26.6 °F - 14.0 °F 59% 30.24 in 3.1 mi ESE 2.2 mph - N/A   Haze
9:00 PM 28.4 °F - 15.8 °F 59% 30.24 in 3.1 mi Variable 2.2 mph - N/A   Haze
9:30 PM 28.4 °F - 15.8 °F 59% 30.24 in 3.1 mi Variable 2.2 mph - N/A   Haze
10:00 PM 26.6 °F - 15.8 °F 64% 30.24 in 3.1 mi Variable 2.2 mph - N/A   Haze
10:30 PM 26.6 °F - 15.8 °F 64% 30.21 in 3.1 mi Variable 2.2 mph - N/A   Haze
11:00 PM 25 °F - 13 °F 47% 30.23 in 1 mi NE 2.2 mph - -   Haze
11:00 PM 26.6 °F - 15.8 °F 64% 30.21 in 3.1 mi Variable 2.2 mph - N/A   Haze
11:30 PM 24.8 °F - 15.8 °F 69% 30.18 in 3.1 mi Variable 2.2 mph - N/A   Haze